Location: Beuerbach
(48.1459°N, 10.9174°E)
Time: 03:11:23
(UTC+00:00)

CZ-2D R/B - Pass Details

Date: 23 May 2024
Orbit: 791 x 843 km, 98.8° (Epoch: 13 June)

Event Time Altitude Azimuth Distance (km) Brightness Sun altitude
Rises 00:10:44 0° 25° (NNE) 3,411 6.9 -20.0°
Reaches altitude 10° 00:13:39 10° 40° (NE) 2,468 5.6 -19.9°
Maximum altitude 00:17:53 23° 91° (E) 1,729 4.0 -19.7°
Enters shadow 00:21:25 13° 137° (SE) 2,254 4.1 -19.5°
